星链-32211 (STARLINK-32211)

导读

STARLINK-32211是美国SpaceX公司于2024年7月27日发射的星链(Starlink)低轨互联网卫星,部署在近地轨道,属于星链星座的组成部分。星链星座旨在为全球尤其是基础设施匮乏地区提供高速、低延迟的宽带互联网服务,支持民用通信、航空与海洋联网等多元场景,该卫星的发射进一步扩充了星链网络的全球覆盖能力。

基本信息
目录编号:
60270
目录名称:
STARLINK-32211
国际标识:
2024-131R
轨道中心:
EARTH
卫星名称:
星链-32211 (STARLINK-32211)
卫星全名:
星链-32211 (STARLINK-32211)
卫星状态:
在轨 (已飞行776 天)
发射日期:
2024-07-27 UTC
国别 :
美国 (US)
星等 :
--
该卫星已列入 空间交会检测服务 Space Conjunction Data Service (SCDS) ,当前飞行风险评估等级: 高风险
轨道信息
数据来源 国际轨道数据 AOE轨道数据
星历时间 2026-09-11T09:03:31+0800
15小时前
查看轨道信息
2026-09-10T07:00:00+0800
1天前
查看轨道信息
半长轴 6840.873km 6840.859km
偏心率 0.0001408 0.0001246
轨道倾角 53.159° 53.156°
近地点辐角 88.204° 123.587°
升交点赤经 269.620° 274.695°
平近点角 271.913° 355.573°
近地点 461.772km 461.869km
远地点 463.7km 463.575km
周期 93.848分钟 93.848分钟
每日圈数 15.34389 15.343939
详细信息
卫星平台:
Starlink v2.0 mini
运营商:
太空探索技术公司
运营商所在国:
美国
制造商(研发单位):
太空探索技术公司
制造商所在国:
美国
使用方式:
暂无
卫星简介
星链(Starlink)计划是由太空探索技术公司(SpaceX)提出的一个巨型低轨卫星互联网星座项目,计划在2019年至2024年间在太空搭建由约1.2万颗卫星组成的“星链”网络,其中1584颗将部署在地球上空550千米处的近地轨道,并从2020年开始工作。该卫星仍在工作。
2D轨道图
3D轨道图
轨道高度分析图
轨道倾角分析图
轨道综合分析图
查看轨道综合分析图
交会数据列表
事件ID 空间交会对象 最接近时刻(TCA) 交会距离 交会风险概率(CRP) 交会风险指数(CRI) 操作
CDM_260913-094906-027006-851421
2026-09-13T
09:49:59+0000
0.338 km
远距离
3.080526E-4 高风险 0.85
CDM_260913-105906-027006-547721
2026-09-13T
10:59:09+0000
0.634 km
远距离
9.860566E-5 中风险 0.75
CDM_260914-020602-822006-027021
TANSUO 1 (28220)
2026-09-14T
02:06:07+0000
1.502 km
极远距离
5.42263E-6 低风险 0.5
CDM_260913-123206-027006-547721
2026-09-13T
12:32:56+0000
2.254 km
极远距离
1.892496E-6 低风险 0.41
CDM_260913-092506-027006-547721
2026-09-13T
09:25:21+0000
2.343 km
极远距离
1.747229E-6 低风险 0.4
CDM_260913-121305-274606-027022
2026-09-13T
12:13:28+0000
2.857 km
极远距离
1.392459E-6 低风险 0.38
CDM_260909-081605-082906-027021
2026-09-09T
08:16:04+0000
2.770 km
极远距离
1.275544E-6 低风险 0.37
CDM_260914-043205-212306-027021
2026-09-14T
04:32:41+0000
2.956 km
极远距离
7.127435E-7 极低风险 0.32
与全量物体交会距离演化趋势
与全量物体交会风险概率演化趋势